Location: Igon
(43.1667°N, 0.2333°W)
Time: 03:47:36
(UTC+00:00)

SKYMED 3 - Pass Details

Date: 12 April 2021
Orbit: 621 x 624 km, 97.9° (Epoch: 18 May)

Event Time Altitude Azimuth Distance (km) Brightness Sun altitude
Rises 03:59:03 0° 123° (ESE) 2,897 8.4 -15.3°
Reaches altitude 10° 04:01:53 10° 103° (ESE) 1,996 7.9 -14.8°
Maximum altitude 04:04:38 17° 64° (ENE) 1,597 7.9 -14.4°
Drops below altitude 10° 04:07:25 10° 24° (NNE) 2,005 7.9 -13.9°
Sets 04:10:15 0° 4° (N) 2,916 8.5 -13.5°
